Seattle, WA

5:09 AM PST on December 07, 2016 (GMT -0800)
Renton Municipal

Weather History for KRNT - September, 2013

Change the Weather History Date:

Saturday, September 28, 2013

  Actual Average Record
Temperature  
Mean Temperature 58 °F -  
Max Temperature 63 °F 66 °F 84 °F (2003)
Min Temperature 53 °F 49 °F 44 °F (1999)
Degree Days  
Heating Degree Days 8    
Growing Degree Days 8 (Base 50)    
Moisture  
Dew Point 31 °F    
Average Humidity 38    
Maximum Humidity 44    
Minimum Humidity 35    
Precipitation  
Precipitation 1.63 in - - ()
Sea Level Pressure  
Sea Level Pressure 29.55 in    
Wind  
Wind Speed 5 mph (SE)    
Max Wind Speed 12 mph    
Max Gust Speed 18 mph    
Visibility 6 miles    
Events Rain    
Averages and records for this station are not official NWS values.
T = Trace of Precipitation, MM = Missing Value Source: NWS Daily Summary

Daily Weather History Graph

Daily Weather History Graph

Search for Another Location

Airport or City:

Trip Planner

Search our weather history database for the weather conditions in past years. The results will help you decide how hot, cold, wet, or windy it might be!

Date:

Astronomy

Sep. 28, 2013 Rise Set
Actual Time 7:04 AM PDT 6:53 PM PDT
Civil Twilight 6:33 AM PDT 7:24 PM PDT
Nautical Twilight 5:57 AM PDT 7:59 PM PDT
Astronomical Twilight 5:21 AM PDT 8:36 PM PDT
Moon 12:35 AM PDT (9/28) 3:35 PM PDT (9/28)
Length of Visible Light 12h 50m
Length of Day
11h 49m
Waning Crescent, 35% of the Moon is Illuminated
Sep 28
Waning Crescent
Oct 4
New
Oct 11
First Quarter
Oct 18
Full
Oct 26
Last Quarter

Hourly Weather History & Observations

Time (PDT) Temp. Dew Point Humidity Pressure Visibility Wind Dir Wind Speed Gust Speed Precip Events Conditions
12:53 AM 54.0 °F 27.0 °F 35% 29.86 in 10.0 mi SE 3.5 mph - N/A   Clear
1:53 AM 54.0 °F 27.0 °F 35% 29.84 in 10.0 mi ESE 3.5 mph - N/A   Overcast
2:53 AM 54.0 °F 28.0 °F 37% 29.81 in 9.0 mi SSE 4.6 mph - 0.01 in Rain Light Rain
3:53 AM 55.0 °F 28.9 °F 37% 29.78 in 10.0 mi ESE 4.6 mph - 0.01 in Rain Light Rain
4:53 AM 55.0 °F 28.0 °F 35% 29.73 in 10.0 mi Calm Calm - 0.00 in Rain Light Rain
5:53 AM 54.0 °F 28.0 °F 37% 29.68 in 6.0 mi SSE 3.5 mph - 0.04 in Rain Light Rain
6:10 AM 53.6 °F 28.4 °F 38% 29.64 in 7.0 mi SE 3.5 mph - 0.02 in Rain Light Rain
6:31 AM 53.6 °F 28.4 °F 38% 29.63 in 6.0 mi South 4.6 mph - 0.03 in Rain Light Rain
6:53 AM 54.0 °F 28.0 °F 37% 29.63 in 5.0 mi SE 3.5 mph - 0.05 in Rain Light Rain
7:53 AM 55.9 °F 30.0 °F 37% 29.59 in 10.0 mi SE 5.8 mph - 0.02 in Rain Light Rain
8:53 AM 57.0 °F 32.0 °F 39% 29.57 in 2.5 mi SE 6.9 mph - 0.08 in Rain Rain
9:23 AM 57.2 °F 32.0 °F 38% 29.54 in 5.0 mi ESE 4.6 mph - 0.05 in Rain Light Rain
9:53 AM 57.0 °F 30.9 °F 37% 29.56 in 5.0 mi ESE 3.5 mph - 0.09 in Rain Light Rain
9:57 AM 57.2 °F 30.2 °F 36% 29.54 in 5.0 mi ESE 4.6 mph - 0.00 in Rain Light Rain
10:26 AM 59.0 °F 33.8 °F 39% 29.55 in 2.5 mi Variable 4.6 mph - 0.05 in Rain Rain
10:48 AM 59.0 °F 33.8 °F 39% 29.53 in 3.0 mi SSE 6.9 mph - 0.09 in Rain Light Rain
10:53 AM 59.0 °F 34.0 °F 39% 29.55 in 2.5 mi SSE 9.2 mph - 0.12 in Rain Light Rain
11:24 AM 59.0 °F 33.8 °F 39% 29.52 in 1.8 mi SE 6.9 mph - 0.11 in Rain Rain
11:32 AM 59.0 °F 32.0 °F 36% 29.51 in 1.0 mi ESE 4.6 mph - 0.17 in Rain Heavy Rain
11:49 AM 59.0 °F 33.8 °F 39% 29.50 in 2.0 mi Variable 5.8 mph - 0.27 in Rain Light Rain
11:53 AM 59.0 °F 33.1 °F 38% 29.52 in 3.0 mi SE 4.6 mph - 0.27 in Rain Light Rain
12:10 PM 59.0 °F 33.8 °F 39% 29.50 in 1.8 mi SSE 5.8 mph - 0.07 in Rain Heavy Rain
12:53 PM 59.0 °F 33.1 °F 38% 29.52 in 2.5 mi SE 6.9 mph - 0.34 in Rain Rain
12:55 PM 59.0 °F 33.8 °F 39% 29.50 in 3.0 mi SSE 8.1 mph - 0.00 in Rain Light Rain
1:53 PM 61.0 °F 35.1 °F 38% 29.45 in 3.0 mi SE 5.8 mph - 0.01 in   Mostly Cloudy
2:53 PM 62.1 °F 34.0 °F 35% 29.41 in 9.0 mi SE 10.4 mph 17.3 mph 0.05 in Rain Light Rain
3:53 PM 62.1 °F 36.0 °F 38% 29.38 in 10.0 mi SE 11.5 mph 18.4 mph 0.04 in   Overcast
4:53 PM 61.0 °F 34.0 °F 36% 29.40 in 2.5 mi South 8.1 mph 17.3 mph 0.13 in Rain Rain
5:15 PM 59.0 °F 33.8 °F 39% 29.41 in 3.0 mi South 10.4 mph 18.4 mph 0.21 in Rain Light Rain
5:53 PM 55.9 °F 28.9 °F 36% 29.45 in 7.0 mi Variable 6.9 mph - 0.24 in Rain Light Rain
6:42 PM 53.6 °F 32.0 °F 44% 29.46 in 5.0 mi SE 9.2 mph 17.3 mph 0.04 in Rain Light Rain
6:53 PM 54.0 °F 32.0 °F 43% 29.47 in 6.0 mi SSE 9.2 mph - 0.06 in Rain Light Rain
7:53 PM 54.0 °F 32.0 °F 43% 29.48 in 10.0 mi SE 9.2 mph 18.4 mph 0.03 in Rain Light Rain
8:53 PM 54.0 °F 30.9 °F 41% 29.50 in 10.0 mi SSE 5.8 mph - 0.00 in   Overcast
9:53 PM 54.0 °F 30.9 °F 41% 29.51 in 10.0 mi SSE 8.1 mph 17.3 mph 0.01 in Rain Light Rain
10:08 PM 53.6 °F 30.2 °F 41% 29.50 in 10.0 mi SSE 6.9 mph - 0.00 in Rain Light Rain
10:15 PM 53.6 °F 30.2 °F 41% 29.50 in 10.0 mi SSE 8.1 mph - 0.00 in Rain Light Rain
10:53 PM 53.1 °F 30.0 °F 41% 29.52 in 10.0 mi SE 8.1 mph - 0.02 in   Overcast
11:53 PM 53.1 °F 30.0 °F 41% 29.53 in 10.0 mi SE 4.6 mph - 0.01 in   Overcast